Location: Newark
(58.8333°N, 23.5833°E)
Time: 22:56:32
(UTC+00:00)

Vanguard 2 - Visible Passes

Search period start: 22 November 2019 00:00
Search period end: 02 December 2019 00:00
Orbit: 554 x 2937 km, 32.9° (Epoch: 22 November)

Date Brightness Start Highest point End Pass type
(mag) Time Alt. Az. Time Alt. Az. Time Alt. Az.
24 Nov 11.6 05:48:43 10° SSW 05:51:52 11° S 05:54:40 10° SSE visible
26 Nov 11.7 04:14:09 10° S 04:18:53 12° SSE 04:23:02 10° SE visible
27 Nov 11.6 04:29:38 10° SSW 04:36:13 15° S 04:41:43 10° SE visible
28 Nov 11.8 02:41:32 10° S 02:45:32 11° SSE 02:49:15 10° SE visible
28 Nov 11.5 04:45:49 10° SSW 04:53:32 17° S 04:59:46 10° SE visible
29 Nov 11.7 02:55:44 10° S 03:02:47 14° SSE 03:08:55 10° SE visible
29 Nov 11.4 05:02:27 10° SW 05:10:49 18° S 05:17:30 10° SE visible
30 Nov 11.5 03:11:15 10° SSW 03:20:02 17° SSE 03:27:26 10° SE visible
30 Nov 11.4 05:19:24 10° SW 05:28:05 19° S 05:34:58 10° SSE visible
01 Dec 11.8 01:24:02 10° SSE 01:29:07 12° SSE 01:33:52 10° SE visible
01 Dec 11.5 03:27:22 10° SSW 03:37:18 19° S 03:45:29 10° SE visible
01 Dec 11.4 05:36:36 10° SW 05:45:19 19° SSW 05:52:14 10° SSE visible
